Time,TemperatureF,DewpointF,PressureIn,WindDirection,WindDirectionDegrees,WindSpeedMPH,WindSpeedGustMPH,Humidity,HourlyPrecipIn,Conditions,Clouds,dailyrainin,SolarRadiationWatts/m^2,SoftwareType,DateUTC
2013-08-28 10:42:00,59.0,53.0,-100.00,NNE,12,4.0,6.0,81,-99.99,,,0.29,648.000000,,2013-08-28 18:42:00,
2013-08-28 12:23:00,62.0,53.0,-100.00,North,5,5.0,8.0,73,-99.99,,,0.29,800.000000,,2013-08-28 20:23:00,
2013-08-28 12:32:00,62.0,53.0,-100.00,North,5,5.0,8.0,73,-99.99,,,0.29,800.000000,,2013-08-28 20:32:00,
2013-08-28 12:43:00,62.0,53.0,-100.00,North,5,5.0,8.0,73,-99.99,,,0.29,800.000000,,2013-08-28 20:43:00,
2013-08-28 13:44:00,62.0,52.0,-100.00,NNE,18,4.0,8.0,70,-99.99,,,0.29,525.000000,,2013-08-28 21:44:00,
2013-08-28 14:25:00,62.0,52.0,-100.00,NNE,28,5.0,8.0,71,0.00,,,0.29,428.000000,,2013-08-28 22:25:00,
2013-08-28 14:34:00,62.0,52.0,-100.00,NNE,28,5.0,8.0,71,0.00,,,0.29,428.000000,,2013-08-28 22:34:00,
2013-08-28 14:43:00,62.0,52.0,-100.00,NNE,28,5.0,8.0,71,0.00,,,0.29,428.000000,,2013-08-28 22:43:00,
2013-08-28 14:54:00,62.0,52.0,-100.00,NNE,28,5.0,8.0,71,0.00,,,0.29,428.000000,,2013-08-28 22:54:00,
2013-08-28 15:22:00,61.0,51.0,-100.00,North,10,5.0,7.0,70,0.00,,,0.29,348.000000,,2013-08-28 23:22:00,
2013-08-28 15:33:00,61.0,51.0,-100.00,North,10,5.0,7.0,70,0.00,,,0.29,348.000000,,2013-08-28 23:33:00,
2013-08-28 15:42:00,61.0,51.0,-100.00,North,10,5.0,7.0,70,0.00,,,0.29,348.000000,,2013-08-28 23:42:00,
2013-08-28 15:53:00,61.0,51.0,-100.00,North,10,5.0,7.0,70,0.00,,,0.29,348.000000,,2013-08-28 23:53:00,
2013-08-28 17:22:00,63.0,51.0,-100.00,North,5,5.0,8.0,65,0.00,,,0.05,277.000000,,2013-08-29 01:22:00,
2013-08-28 17:32:00,63.0,51.0,-100.00,North,5,5.0,8.0,65,0.00,,,0.05,277.000000,,2013-08-29 01:32:00,
2013-08-28 17:42:00,63.0,51.0,-100.00,North,5,5.0,8.0,65,0.00,,,0.05,277.000000,,2013-08-29 01:42:00,
2013-08-28 17:52:00,63.0,51.0,-100.00,North,5,5.0,8.0,65,0.00,,,0.05,277.000000,,2013-08-29 01:52:00,
2013-08-28 18:22:00,63.0,50.0,-100.00,North,355,3.0,6.0,63,0.00,,,0.00,212.000000,,2013-08-29 02:22:00,
2013-08-28 18:32:00,63.0,50.0,-100.00,North,355,3.0,6.0,63,0.00,,,0.00,212.000000,,2013-08-29 02:32:00,
2013-08-28 18:43:00,63.0,50.0,-100.00,North,355,3.0,6.0,63,0.00,,,0.00,212.000000,,2013-08-29 02:43:00,
2013-08-28 18:52:00,63.0,50.0,-100.00,North,355,3.0,6.0,63,0.00,,,0.00,212.000000,,2013-08-29 02:52:00,
2013-08-28 18:55:00,60.0,49.0,-100.00,NNE,25,2.0,6.0,67,0.00,,,0.00,77.000000,,2013-08-29 02:55:00,
2013-08-28 19:22:00,60.0,49.0,-100.00,NNE,25,2.0,6.0,67,0.00,,,0.00,77.000000,,2013-08-29 03:22:00,
2013-08-28 19:37:00,60.0,49.0,-100.00,NNE,25,2.0,6.0,67,0.00,,,0.00,77.000000,,2013-08-29 03:37:00,
2013-08-28 19:45:00,60.0,49.0,-100.00,NNE,25,2.0,6.0,67,0.00,,,0.00,77.000000,,2013-08-29 03:45:00,
2013-08-28 20:28:00,55.0,50.0,-100.00,NW,320,2.0,3.0,82,0.00,,,0.00,16.000000,,2013-08-29 04:28:00,
2013-08-28 20:37:00,55.0,50.0,-100.00,NW,320,2.0,3.0,82,0.00,,,0.00,16.000000,,2013-08-29 04:37:00,
2013-08-28 20:45:00,55.0,50.0,-100.00,NW,320,2.0,3.0,82,0.00,,,0.00,16.000000,,2013-08-29 04:45:00,
2013-08-28 20:54:00,55.0,50.0,-100.00,NW,320,2.0,3.0,82,0.00,,,0.00,16.000000,,2013-08-29 04:54:00,
2013-08-28 21:23:00,51.0,49.0,-100.00,NNW,345,2.0,4.0,92,0.00,,,0.00,1.000000,,2013-08-29 05:23:00,
2013-08-28 21:34:00,51.0,49.0,-100.00,NNW,345,2.0,4.0,92,0.00,,,0.00,1.000000,,2013-08-29 05:34:00,
2013-08-28 21:42:00,51.0,49.0,-100.00,NNW,345,2.0,4.0,92,0.00,,,0.00,1.000000,,2013-08-29 05:42:00,
2013-08-28 21:52:00,51.0,49.0,-100.00,NNW,345,2.0,4.0,92,0.00,,,0.00,1.000000,,2013-08-29 05:52:00,
2013-08-28 22:22:00,47.0,46.0,-100.00,NNW,328,3.0,4.0,96,0.00,,,0.00,0.000000,,2013-08-29 06:22:00,
2013-08-28 22:32:00,47.0,46.0,-100.00,NNW,328,3.0,4.0,96,0.00,,,0.00,0.000000,,2013-08-29 06:32:00,
2013-08-28 22:43:00,47.0,46.0,-100.00,NNW,328,3.0,4.0,96,0.00,,,0.00,0.000000,,2013-08-29 06:43:00,
2013-08-28 22:52:00,47.0,46.0,-100.00,NNW,328,3.0,4.0,96,0.00,,,0.00,0.000000,,2013-08-29 06:52:00,
2013-08-28 23:22:00,47.0,46.0,-100.00,North,349,2.0,4.0,97,0.00,,,0.00,0.000000,,2013-08-29 07:22:00,
2013-08-28 23:32:00,47.0,46.0,-100.00,North,349,2.0,4.0,97,0.00,,,0.00,0.000000,,2013-08-29 07:32:00,
2013-08-28 23:42:00,47.0,46.0,-100.00,North,349,2.0,4.0,97,0.00,,,0.00,0.000000,,2013-08-29 07:42:00,
2013-08-28 23:53:00,47.0,46.0,-100.00,North,349,2.0,4.0,97,0.00,,,0.00,0.000000,,2013-08-29 07:53:00,